CAPE
960 1923 2591 2628 2614 2458 2104 1703 1248 1013 917 541 287 205 405 419 577 690 851 817 878 1260 835 577 433 921 767 975 825 582 571 509 477 509 695 727 769 633 630 781 849 216 454
1183 1902 2470 2534 2586 2469 2074 1687 1364 1190 1043 973 641 232 320 490 477 557 616 730 1069 1152 735 422 523 810 706 643 241 294 353 334 420 393 238 290 532 722 576 692 836 589 544
1442 1846 2263 2408 2478 2415 2049 1680 1437 1334 1206 1042 895 461 302 259 374 472 528 771 792 673 676 390 551 672 427 472 656 634 341 404 506 310 150 33 171 563 469 640 968 791 401
1613 1906 1990 2342 2462 2431 2067 1768 1567 1449 1362 1223 978 754 687 360 364 774 602 709 924 839 610 590 519 681 770 576 469 500 426 354 267 62 0 8 74 369 360 276 326 303 147
1759 1751 1894 2268 2468 2400 2096 1819 1661 1475 1346 1316 1036 822 744 784 695 539 524 849 931 625 508 537 421 680 970 708 438 519 383 205 69 26 0 0 24 47 114 181 91 138 33
1749 1532 1884 2201 2438 2340 2062 1865 1688 1514 1345 1316 1077 818 730 884 801 714 758 657 596 490 405 318 374 464 733 527 409 350 284 37 6 21 6 16 7 56 58 103 104 55 37
1068 1586 1870 2242 2446 2250 2138 1953 1724 1526 1364 1233 1058 886 1009 939 511 562 473 402 474 456 369 211 334 387 527 468 495 277 75 26 5 0 9 13 18 41 48 49 55 41 32
20 1734 1778 2037 2151 1984 1966 1832 1675 1487 1361 1082 1008 1078 992 602 729 543 291 333 364 452 269 218 306 342 496 513 258 124 49 22 0 0 3 30 59 21 31 36 39 23 14
0 0 238 1443 1756 1616 1431 1322 1354 1361 1135 952 1037 892 617 458 457 387 331 319 334 344 191 292 393 332 421 510 171 55 26 7 0 0 8 16 46 23 41 35 14 7 15
0 0 0 0 1 1038 951 936 1076 1073 723 831 702 529 235 125 196 260 112 206 337 256 195 266 413 358 348 234 91 34 12 2 0 0 7 27 59 36 25 21 17 16 11
0 0 0 0 2 2 489 697 670 727 587 672 315 86 15 33 28 23 0 149 252 284 217 283 353 200 91 40 39 23 6 0 0 0 2 54 30 73 58 40 38 16 25
0 0 0 0 1 3 14 382 581 582 555 562 142 70 20 5 0 0 0 64 105 97 182 288 154 47 17 20 28 11 0 0 0 0 6 43 48 56 38 15 20 30 29
0 0 0 1 1 6 18 8 417 594 461 392 68 46 7 0 0 0 6 14 15 34 61 45 20 9 16 18 24 9 0 0 0 0 8 13 22 31 28 34 15 19 12
0 0 1 3 4 7 5 8 9 630 429 336 127 32 0 0 1 1 0 0 0 0 0 1 0 0 7 5 10 1 0 0 0 0 13 31 38 19 19 17 15 26 22
0 0 2 5 4 2 4 16 7 11 397 290 211 30 0 0 0 2 0 0 0 0 0 0 0 0 13 13 9 0 3 0 0 0 2 17 46 53 17 17 23 20 33
0 0 1 5 6 0 3 10 14 4 300 237 250 68 0 0 0 0 0 0 0 0 0 0 0 0 0 0 15 6 0 0 2 15 10 21 40 55 49 15 15 15 9
0 0 4 5 4 2 5 9 9 8 29 443 242 206 0 0 0 0 0 0 0 0 0 0 0 0 0 2 9 5 0 0 2 8 5 1 1 5 23 18 5 17 8
0 0 6 1 4 4 4 15 16 6 3 418 310 271 0 0 0 0 0 0 0 0 0 0 0 0 0 0 0 2 0 0 0 1 0 0 0 0 0 9 19 21 16
0 0 4 2 4 5 5 10 6 6 7 119 387 255 2 0 0 0 0 0 0 0 0 0 0 0 0 0 0 0 0 0 0 0 1 0 0 0 0 2 28 28 22
0 0 3 5 3 4 6 8 10 5 6 17 346 200 1 0 0 0 0 0 0 0 0 0 0 0 0 0 0 0 0 0 0 0 0 0 0 0 0 0 13 5 18
0 3 5 3 5 7 9 6 3 4 1 9 149 178 20 0 0 0 0 0 0 0 0 0 0 0 0 0 0 0 0 0 0 0 0 0 0 0 0 0 10 10 4
0 1 4 7 7 4 10 9 9 9 3 6 5 205 49 5 0 0 0 0 0 0 0 0 0 0 0 0 0 0 0 0 0 0 0 0 0 0 0 0 0 1 5
0 1 8 8 9 3 3 8 7 4 2 2 0 20 65 6 0 1 0 0 0 0 0 0 0 0 0 0 0 0 0 0 0 0 0 0 0 0 0 1 0 0 0
0 7 6 7 8 3 4 6 5 7 10 1 3 23 122 2 2 0 0 0 0 0 0 0 0 0 0 0 0 0 0 0 0 1 0 0 0 0 0 0 0 0 0
0 3 5 6 6 5 6 4 8 5 8 8 3 0 88 2 1 0 0 0 0 0 0 0 0 0 0 0 0 0 0 0 0 0 0 0 0 0 0 0 0 0 0
0 0 3 3 3 2 3 5 4 5 4 5 1 1 7 16 0 0 0 0 0 0 0 0 0 0 0 0 0 0 0 0 0 0 0 0 0 0 0 0 0 0 0
CIN
-268 -149 -66 -41 -18 -13 -14 -37 -52 -38 -33 -74 -77 -92 -52 -54 -36 -20 -29 -24 -6 -0 -12 -30 -31 -0 -0 -0 -4 -19 -16 -15 -17 -30 -23 -11 -5 -12 -6 -0 -0 -39 -6
-253 -108 -58 -44 -19 -2 -6 -13 -26 -14 -8 -15 -25 -76 -47 -64 -55 -29 -40 -24 -6 -0 -22 -67 -40 -0 -4 -8 -68 -61 -39 -37 -23 -46 -69 -60 -19 -4 -7 -0 -0 -4 -7
-227 -113 -48 -23 -16 -3 -1 -10 -18 -2 -0 -6 -28 -49 -59 -51 -88 -43 -40 -19 -16 -31 -38 -90 -35 -10 -16 -27 -10 -16 -49 -31 -29 -61 -113 -119 -80 -7 -10 -2 -0 -1 -20
-165 -101 -64 -19 -2 -0 -0 -0 -1 -0 -0 -0 -4 -23 -13 -49 -67 -10 -21 -32 -11 -25 -56 -64 -41 -17 -1 -13 -18 -33 -57 -69 -79 -191 -0 -23 -149 -32 -20 -29 -18 -31 -85
-124 -117 -75 -33 -3 -0 -0 -0 -0 -0 -0 -0 -0 -15 -17 -11 -7 -15 -23 -23 -24 -54 -73 -54 -67 -11 -0 -4 -30 -38 -74 -140 -239 -33 -0 -0 -11 -53 -102 -44 -107 -97 -0
-57 -104 -52 -6 -0 -0 -0 -0 -0 -0 -0 -0 -0 -2 -5 -1 -0 -7 -3 -17 -29 -77 -87 -105 -97 -35 -11 -19 -43 -56 -103 -87 -61 -47 -29 -11 -17 -3 -198 -106 -109 -130 -0
-34 -51 -47 -0 -0 -0 -0 -0 -0 -0 -0 -0 -0 -0 -0 -0 -12 -16 -29 -66 -49 -61 -76 -125 -109 -67 -40 -45 -26 -104 -230 -71 -86 -66 -35 -22 -8 -0 -0 -0 -0 -0 -0
-66 -31 -53 -36 -1 -1 -0 -0 -0 -0 -0 -0 -0 -0 -0 -1 -0 -8 -46 -51 -47 -54 -111 -110 -116 -81 -43 -42 -121 -207 -50 -66 -0 -0 -27 -23 -5 -0 -1 -0 -1 -1 -0
-0 -0 -8 -47 -34 -10 -1 -2 -0 -0 -0 -0 -0 -0 -0 -7 -17 -18 -40 -45 -49 -46 -117 -92 -72 -92 -76 -55 -184 -31 -74 -102 -0 -0 -28 -26 -2 -1 -0 -2 -2 -0 -0
-0 -0 -0 -0 -0 -31 -21 -18 -9 -1 -1 -1 -1 -2 -25 -92 -64 -52 -106 -77 -34 -70 -116 -99 -60 -91 -114 -164 -266 -54 -96 -115 -0 -0 -27 -10 -0 -0 -0 -1 -0 -0 -0
-0 -0 -0 -0 -0 -0 -38 -38 -35 -18 -12 -4 -13 -122 -221 -209 -209 -208 -0 -114 -73 -72 -110 -79 -76 -149 -241 -31 -42 -72 -86 -0 -0 -0 -18 -7 -0 -0 -0 -0 -1 -0 -0
-0 -0 -0 -0 -0 -0 -0 -24 -25 -26 -1 -1 -32 -96 -219 -263 -0 -0 -0 -169 -148 -184 -117 -79 -162 -139 -75 -60 -48 -59 -0 -0 -0 -0 -10 -2 -0 -0 -0 -0 -0 -2 -0
-0 -0 -0 -0 -0 -0 -0 -0 -11 -5 -1 -0 -52 -84 -267 -0 -0 -0 -2 -2 -7 -12 -44 -52 -53 -99 -102 -68 -49 -68 -0 -0 -0 -0 -4 -0 -0 -0 -0 -1 -0 -0 -0
-0 -0 -0 -0 -0 -0 -0 -0 -0 -0 -0 -1 -3 -102 -0 -0 -0 -0 -1 -0 -0 -0 -0 -22 -0 -0 -80 -76 -78 -72 -0 -0 -0 -0 -15 -8 -0 -0 -0 -0 -0 -2 -1
-0 -0 -0 -0 -0 -0 -0 -0 -0 -0 -1 -1 -0 -59 -0 -0 -0 -1 -0 -0 -0 -0 -13 -0 -0 -0 -48 -51 -34 -5 -104 -0 -0 -0 -17 -6 -4 -0 -0 -0 -0 -0 -1
-0 -0 -0 -0 -0 -0 -0 -0 -0 -0 -2 -2 -1 -3 -0 -0 -0 -0 -0 -0 -0 -0 -0 -0 -0 -0 -0 -5 -29 -69 -73 -0 -64 -67 -49 -16 -10 -1 -0 -0 -0 -0 -1
-0 -0 -0 -0 -0 -0 -0 -0 -0 -0 -4 -2 -4 -1 -0 -0 -0 -0 -0 -0 -0 -0 -0 -0 -0 -0 -0 -32 -54 -65 -0 -0 -112 -92 -78 -19 -44 -28 -8 -0 -0 -1 -3
-0 -0 -0 -0 -0 -0 -0 -0 -0 -0 -0 -1 -5 -2 -0 -0 -0 -0 -0 -0 -0 -0 -0 -0 -0 -0 -0 -0 -0 -44 -0 -0 -0 -28 -0 -0 -0 -0 -0 -4 -1 -0 -1
-0 -0 -0 -0 -0 -0 -0 -0 -0 -0 -0 -11 -1 -4 -23 -0 -0 -0 -0 -0 -0 -0 -0 -0 -0 -0 -0 -0 -0 -0 -0 -0 -0 -0 -53 -0 -0 -0 -0 -6 -13 -7 -5
-0 -0 -0 -0 -0 -0 -0 -0 -0 -0 -0 -1 -3 -9 -6 -0 -0 -0 -0 -0 -0 -0 -0 -0 -0 -0 -0 -0 -0 -0 -0 -0 -0 -0 -0 -0 -0 -0 -0 -0 -26 -20 -13
-0 -0 -0 -0 -0 -0 -0 -0 -0 -0 -0 -12 -27 -10 -26 -0 -0 -0 -0 -0 -0 -0 -0 -0 -0 -0 -0 -0 -0 -0 -0 -0 -0 -0 -0 -0 -0 -0 -0 -0 -33 -35 -16
-0 -0 -0 -0 -0 -0 -0 -0 -0 -0 -0 -0 -0 -2 -19 -56 -0 -0 -0 -0 -0 -0 -0 -0 -0 -0 -0 -0 -0 -0 -5 -0 -0 -0 -0 -0 -0 -0 -0 -0 -0 -28 -43
-0 -0 -0 -0 -0 -0 -0 -0 -0 -0 -0 -0 -0 -8 -14 -52 -0 -41 -0 -0 -0 -0 -0 -0 -0 -0 -0 -0 -0 -0 -3 -0 -0 -0 -0 -0 -0 -0 -0 -13 -0 -0 -0
-0 -0 -0 -0 -0 -0 -0 -0 -0 -0 -0 -0 -1 -0 -9 -43 -41 -0 -0 -0 -0 -0 -0 -0 -0 -0 -0 -0 -0 -0 -0 -0 -0 -2 -0 -0 -0 -0 -0 -0 -0 -0 -0
-1 -0 -0 -0 -0 -0 -0 -0 -0 -0 -0 -0 -0 -0 -8 -1 -13 -0 -0 -0 -0 -0 -0 -0 -0 -0 -0 -0 -0 -0 -0 -0 -0 -0 -0 -0 -0 -0 -0 -0 -0 -0 -0
-0 -0 -0 -0 -0 -0 -0 -0 -0 -0 -0 -0 -0 -0 -0 -13 -7 -0 -0 -0 -0 -0 -0 -0 -0 -0 -0 -0 -0 -0 -0 -0 -0 -0 -0 -0 -0 -0 -0 -0 -0 -0 -0
Wind_Speed
9 14 22 22 21 21 22 22 20 18 17 18 17 17 17 18 18 18 19 19 18 18 19 19 18 16 17 20 20 21 21 20 20 21 19 20 19 21 19 18 16 13 20
13 13 20 22 21 21 21 20 20 18 17 18 18 18 17 19 19 17 18 19 19 19 21 20 19 17 19 21 20 21 22 21 18 17 17 16 18 19 20 19 18 19 22
17 15 16 20 20 21 21 21 20 19 18 18 20 19 18 17 19 17 17 21 22 20 21 21 20 18 19 20 18 18 19 17 16 16 14 8 12 19 20 19 19 21 22
15 14 15 20 20 21 21 20 20 20 19 18 19 19 17 18 17 18 19 22 23 21 21 23 17 17 17 17 16 20 20 18 16 13 8 7 11 20 20 20 21 21 21
14 15 14 21 21 23 22 21 20 20 18 18 19 18 17 17 17 18 20 21 23 22 20 20 16 15 15 12 15 18 19 18 16 14 8 6 8 15 20 19 17 21 20
10 13 16 19 19 21 22 22 21 22 21 19 19 18 18 18 19 18 20 20 21 22 21 19 17 14 13 13 14 16 16 15 13 10 8 8 7 17 17 20 21 21 20
5 10 15 18 19 21 22 23 22 22 22 22 18 17 17 17 20 22 21 21 21 21 20 20 18 15 13 14 17 18 18 14 9 7 6 7 10 15 16 16 18 20 19
18 9 14 21 20 22 22 22 22 22 22 22 21 18 17 20 23 23 22 20 20 21 21 20 19 15 15 16 18 17 17 15 11 8 6 7 15 15 15 15 18 17 17
20 22 15 9 16 17 20 22 22 21 21 22 22 22 20 20 21 21 21 21 21 20 20 20 19 16 16 16 17 15 14 11 10 5 5 5 15 13 15 15 15 14 17
18 18 20 18 20 12 13 20 22 21 21 20 19 18 18 17 19 21 19 20 20 20 20 20 18 15 17 19 15 14 12 16 9 7 4 7 16 14 16 16 16 16 16
18 18 18 19 20 20 11 12 18 20 19 18 16 19 17 11 13 14 12 16 18 21 19 19 17 14 17 17 16 12 10 6 7 4 3 15 15 17 20 17 17 16 16
21 19 17 19 20 20 15 11 13 14 12 13 13 15 11 12 11 10 12 15 18 20 19 18 18 14 11 6 8 11 5 7 4 4 5 14 16 16 18 16 16 13 17
18 16 19 18 18 18 16 13 7 8 9 9 15 15 12 10 8 8 7 8 9 13 8 11 11 5 7 6 8 8 9 5 3 3 8 15 15 16 17 15 16 13 15
19 19 19 18 16 16 12 9 14 11 11 10 12 16 12 9 10 10 8 10 9 7 10 8 6 6 6 7 11 10 8 5 3 3 5 11 16 17 16 15 15 12 16
19 18 19 19 17 16 16 11 12 12 12 13 13 15 12 11 12 11 9 9 9 8 9 6 9 8 9 10 11 11 10 8 6 3 3 8 12 16 17 16 14 13 13
19 19 21 19 17 17 15 17 12 10 12 13 12 14 15 12 13 12 11 10 9 8 7 6 8 8 9 10 11 10 10 8 7 7 4 5 11 14 15 16 15 14 10
16 20 18 18 18 17 18 16 14 11 10 12 14 17 17 15 15 15 11 10 10 7 7 7 5 5 6 9 12 10 10 11 8 9 7 6 7 10 14 13 13 11 8
17 18 18 18 18 17 17 14 12 9 10 12 14 14 19 18 17 15 12 11 11 8 8 7 5 6 8 9 9 8 8 9 9 9 5 5 5 5 9 10 12 11 8
15 17 17 16 18 19 16 15 12 17 9 10 12 12 19 19 19 15 12 11 12 9 8 7 3 6 7 8 9 8 7 8 9 6 9 6 5 4 5 6 11 11 7
15 15 16 16 15 17 14 13 11 10 10 9 14 13 21 17 19 15 13 13 12 10 9 7 8 4 5 7 9 9 7 4 6 5 8 6 5 5 6 5 4 5 9
14 15 16 17 16 13 9 12 7 9 3 8 7 18 21 19 19 17 12 14 13 13 13 11 8 11 3 6 6 6 4 5 6 5 5 5 5 5 6 4 3 3 3
15 16 16 16 16 14 10 9 7 9 6 7 7 19 21 21 20 17 16 16 15 12 12 13 12 5 3 9 9 6 4 2 3 4 4 5 6 4 5 5 4 4 4
15 16 16 16 15 13 15 10 8 10 7 7 10 12 19 22 22 19 18 16 15 13 12 14 12 10 10 8 12 6 5 6 8 3 4 4 6 4 4 5 5 5 5
15 14 15 14 15 14 15 12 14 9 10 4 10 12 16 23 22 19 19 17 18 13 14 13 12 11 12 11 9 3 3 5 6 6 2 4 5 5 5 3 5 5 6
14 14 13 13 14 13 13 13 9 10 9 8 8 8 21 19 21 20 20 20 18 13 15 15 14 14 12 11 11 3 2 8 3 4 8 4 1 4 4 4 5 4 5
14 13 12 13 14 13 13 13 13 13 13 11 8 11 9 14 17 20 21 19 18 16 16 15 14 17 14 13 10 4 5 9 4 5 4 8 7 3 4 4 5 5 5
Wind_Direction
165 161 157 155 156 153 149 146 146 145 142 136 134 129 126 122 119 118 124 128 128 125 114 109 102 96 107 104 99 96 93 89 83 77 77 80 79 79 77 72 71 77 77
141 160 161 157 156 155 151 149 146 147 147 142 141 136 135 135 130 127 129 138 135 128 116 105 103 94 104 101 102 104 102 97 87 80 73 71 77 79 78 75 79 81 77
151 159 160 160 160 157 155 152 149 151 151 149 147 145 143 144 138 136 130 130 130 122 117 109 103 105 103 102 101 106 106 100 96 88 79 75 81 81 80 75 75 77 76
147 158 160 161 163 159 158 156 155 155 155 155 152 150 151 151 147 140 135 124 118 118 116 108 111 109 108 109 118 105 98 90 84 78 74 59 79 75 75 80 75 75 75
160 163 163 165 167 162 162 160 159 157 157 156 156 155 155 156 159 147 135 127 121 119 113 115 114 109 113 103 101 100 96 88 78 79 73 70 70 83 80 72 76 78 75
171 164 161 167 170 165 165 166 165 161 159 161 158 158 162 162 164 149 134 125 123 121 122 125 119 119 107 100 102 113 101 97 89 84 72 76 72 78 80 77 78 76 74
258 171 164 168 176 174 171 170 170 166 163 159 161 162 166 164 159 146 140 131 131 127 127 130 126 119 109 100 106 100 99 92 87 78 80 83 86 84 83 78 80 77 74
0 188 175 171 182 184 177 175 172 169 165 162 161 164 161 154 152 149 138 136 136 133 134 136 131 129 123 111 106 105 101 96 85 77 70 84 94 86 85 83 79 78 77
12 10 347 202 182 190 186 182 175 170 167 165 163 162 159 156 145 142 140 142 140 140 139 139 136 138 125 118 112 105 106 101 94 85 86 91 89 99 89 87 92 85 81
20 11 5 351 346 198 192 188 179 171 169 168 164 152 151 145 146 143 146 146 142 144 144 142 141 144 124 120 121 111 103 94 93 96 89 101 97 103 97 89 86 89 84
10 9 7 357 352 341 256 199 182 168 168 163 156 145 142 146 145 144 152 144 144 146 148 145 141 125 124 112 122 109 89 98 102 100 95 105 105 98 97 92 85 88 92
357 358 3 358 348 342 324 226 192 170 174 167 157 153 151 148 147 149 147 138 143 148 147 145 137 129 116 117 117 102 110 98 103 99 106 101 106 100 99 97 96 87 84
349 352 358 354 348 343 339 330 213 174 169 171 160 159 156 149 141 147 144 140 140 142 148 141 130 126 127 120 113 115 115 107 107 100 116 118 121 107 97 103 100 96 92
351 348 349 348 343 345 330 303 306 179 174 173 170 163 161 151 149 149 147 149 147 146 149 150 138 133 119 109 122 119 115 113 103 103 112 110 117 115 112 105 101 103 95
345 344 346 343 344 337 323 299 319 290 175 178 171 170 167 159 153 150 150 155 153 151 160 151 141 134 130 120 127 125 123 117 102 103 98 123 114 120 111 110 108 100 95
340 342 337 340 344 328 326 316 282 304 188 175 175 175 167 163 154 156 157 158 157 158 162 148 146 144 140 134 132 132 132 120 123 116 108 107 120 123 111 108 107 106 108
340 335 338 336 331 325 321 316 321 292 263 177 179 180 164 168 160 159 161 160 163 160 152 137 137 124 139 136 138 144 132 125 125 120 119 112 101 99 105 102 102 104 130
341 335 334 332 326 319 319 299 291 302 284 189 180 177 167 169 164 162 164 164 166 161 157 148 145 133 153 143 137 139 138 130 124 123 108 109 106 94 87 102 115 128 140
339 330 331 328 324 325 315 300 301 266 262 235 181 176 172 166 169 167 167 164 166 157 160 157 143 132 149 136 129 120 125 131 134 139 134 121 109 124 108 110 118 132 135
335 333 330 326 330 327 313 313 298 286 235 258 181 177 171 169 167 170 168 160 161 157 159 151 143 132 139 142 138 114 112 91 109 120 131 129 124 116 115 130 117 139 140
334 337 334 331 333 325 319 334 325 303 349 220 235 180 175 168 169 170 166 158 158 160 164 152 127 140 137 140 116 90 67 100 107 117 110 117 128 140 134 141 128 120 122
331 334 333 332 332 335 330 306 288 312 304 275 268 186 176 169 171 170 165 165 160 152 155 159 142 141 121 161 148 123 136 115 100 137 127 135 151 141 153 165 148 126 116
334 334 334 331 328 322 325 318 292 287 282 254 255 222 176 170 173 168 169 162 161 159 164 166 155 156 158 165 163 137 138 189 154 159 162 154 149 157 170 160 176 157 141
331 327 332 329 328 331 332 324 328 321 293 0 224 284 181 173 172 170 167 167 162 162 168 168 161 157 156 162 168 160 124 157 156 164 154 177 159 167 178 183 163 161 159
326 330 329 325 328 334 332 332 324 317 292 293 297 267 206 170 168 169 167 165 166 164 169 168 166 162 166 165 182 140 126 160 128 128 162 171 159 180 187 182 172 167 164
330 331 332 332 332 335 338 332 329 318 329 321 325 248 264 158 173 170 167 164 168 166 169 170 168 162 168 171 180 167 160 171 161 146 136 168 170 188 180 186 185 175 173